Meteo pe oră la Dziwie

Astăzi, 5 Martie, Vineri

Timp Temperatura Precipitaţii Vânt Presiune Umiditate
00:00 -2°C° 0.1 mm 4 m/s 750 mmHg 89%
01:00 -2°C° 0 mm 4 m/s 751 mmHg 85%
02:00 -3°C° 0 mm 4 m/s 751 mmHg 84%
03:00 -3°C° 0 mm 4 m/s 751 mmHg 83%
04:00 -2°C° 0 mm 3 m/s 751 mmHg 82%
05:00 -2°C° 0 mm 3 m/s 752 mmHg 83%
06:00 -4°C° 0 mm 3 m/s 752 mmHg 83%
07:00 -4°C° 0 mm 4 m/s 753 mmHg 83%
08:00 -3°C° 0 mm 4 m/s 753 mmHg 75%
09:00 -2°C° 0 mm 4 m/s 753 mmHg 68%
10:00 0°C° 0 mm 4 m/s 754 mmHg 61%
11:00 0°C° 0 mm 4 m/s 754 mmHg 56%
12:00 +1°C° 0 mm 4 m/s 754 mmHg 52%
13:00 +1°C° 0 mm 4 m/s 755 mmHg 47%
14:00 +1°C° 0.1 mm 4 m/s 755 mmHg 47%
15:00 +1°C° 0.1 mm 4 m/s 755 mmHg 47%
16:00 +1°C° 0.1 mm 4 m/s 755 mmHg 47%
17:00 0°C° 0 mm 4 m/s 756 mmHg 52%
18:00 0°C° 0 mm 3 m/s 757 mmHg 57%
19:00 -1°C° 0 mm 3 m/s 757 mmHg 61%
20:00 -2°C° 0 mm 3 m/s 758 mmHg 64%
21:00 -2°C° 0 mm 3 m/s 758 mmHg 67%
22:00 -2°C° 0 mm 3 m/s 758 mmHg 70%
23:00 -4°C° 0 mm 3 m/s 759 mmHg 72%

Mâine, 6 Martie, Sâmbătă

Timp Temperatura Precipitaţii Vânt Presiune Umiditate
00:00 -4°C° 0 mm 3 m/s 759 mmHg 74%
01:00 -4°C° 0 mm 3 m/s 759 mmHg 77%
02:00 -4°C° 0 mm 3 m/s 759 mmHg 76%
03:00 -4°C° 0 mm 3 m/s 759 mmHg 75%
04:00 -3°C° 0 mm 2 m/s 759 mmHg 74%
05:00 -3°C° 0 mm 2 m/s 760 mmHg 75%
06:00 -4°C° 0 mm 3 m/s 760 mmHg 76%
07:00 -4°C° 0 mm 3 m/s 760 mmHg 76%
08:00 -1°C° 0 mm 3 m/s 760 mmHg 68%
09:00 0°C° 0 mm 3 m/s 760 mmHg 60%
10:00 +1°C° 0 mm 3 m/s 761 mmHg 53%
11:00 +1°C° 0 mm 4 m/s 760 mmHg 49%
12:00 +1°C° 0 mm 4 m/s 760 mmHg 46%
13:00 +2°C° 0 mm 5 m/s 760 mmHg 42%
14:00 +2°C° 0 mm 5 m/s 759 mmHg 44%
15:00 +2°C° 0 mm 5 m/s 759 mmHg 45%
16:00 +2°C° 0 mm 5 m/s 758 mmHg 46%
17:00 +1°C° 0 mm 5 m/s 758 mmHg 52%
18:00 0°C° 0 mm 5 m/s 758 mmHg 59%
19:00 -2°C° 0 mm 5 m/s 757 mmHg 65%
20:00 -1°C° 0 mm 5 m/s 757 mmHg 68%
21:00 -1°C° 0 mm 5 m/s 757 mmHg 72%
22:00 -2°C° 0 mm 6 m/s 757 mmHg 75%
23:00 -2°C° 0 mm 6 m/s 756 mmHg 79%

Poimâine, 7 Martie, Duminică

Timp Temperatura Precipitaţii Vânt Presiune Umiditate
00:00 -2°C° 0 mm 7 m/s 756 mmHg 83%
01:00 -2°C° 0 mm 7 m/s 756 mmHg 86%
02:00 -2°C° 0 mm 7 m/s 755 mmHg 85%
03:00 -2°C° 0 mm 8 m/s 755 mmHg 84%
04:00 -2°C° 0 mm 8 m/s 754 mmHg 83%
05:00 -2°C° 0 mm 8 m/s 754 mmHg 82%
06:00 -4°C° 0 mm 8 m/s 753 mmHg 81%
07:00 -4°C° 0 mm 9 m/s 753 mmHg 79%
08:00 -3°C° 0 mm 9 m/s 753 mmHg 77%
09:00 -3°C° 0 mm 9 m/s 753 mmHg 75%
10:00 -1°C° 0 mm 9 m/s 753 mmHg 72%
11:00 -1°C° 0 mm 9 m/s 753 mmHg 72%
12:00 -1°C° 0 mm 9 m/s 753 mmHg 71%
13:00 0°C° 0 mm 9 m/s 752 mmHg 70%
14:00 -1°C° 0 mm 8 m/s 752 mmHg 73%
15:00 -1°C° 0 mm 8 m/s 752 mmHg 75%
16:00 -1°C° 0 mm 7 m/s 751 mmHg 78%
17:00 -2°C° 0 mm 7 m/s 751 mmHg 81%
18:00 -2°C° 0 mm 7 m/s 751 mmHg 84%
19:00 -2°C° 0 mm 7 m/s 751 mmHg 87%
20:00 -3°C° 0.2 mm 6 m/s 751 mmHg 88%
21:00 -3°C° 0.2 mm 6 m/s 751 mmHg 89%
22:00 -3°C° 0.2 mm 6 m/s 751 mmHg 90%
23:00 -3°C° 0.4 mm 4 m/s 751 mmHg 91%

8 Martie, Luni

Timp Temperatura Precipitaţii Vânt Presiune Umiditate
00:00 -2°C° 0.4 mm 3 m/s 751 mmHg 91%
01:00 0°C° 0.4 mm 1 m/s 751 mmHg 91%
02:00 -1°C° 0 mm 1 m/s 751 mmHg 89%
03:00 -3°C° 0 mm 2 m/s 751 mmHg 87%
04:00 -4°C° 0 mm 2 m/s 751 mmHg 85%
05:00 -4°C° 0 mm 2 m/s 751 mmHg 84%
06:00 -4°C° 0 mm 2 m/s 752 mmHg 84%
07:00 -4°C° 0 mm 2 m/s 752 mmHg 84%
08:00 -2°C° 0 mm 3 m/s 752 mmHg 75%
09:00 -1°C° 0 mm 3 m/s 753 mmHg 67%
10:00 0°C° 0 mm 3 m/s 753 mmHg 59%
11:00 +1°C° 0 mm 3 m/s 753 mmHg 56%
12:00 +1°C° 0 mm 3 m/s 753 mmHg 54%
13:00 +1°C° 0 mm 4 m/s 754 mmHg 52%
14:00 0°C° 0 mm 4 m/s 754 mmHg 54%
15:00 +1°C° 0 mm 3 m/s 754 mmHg 56%
16:00 +1°C° 0 mm 3 m/s 754 mmHg 57%
17:00 0°C° 0 mm 3 m/s 754 mmHg 64%
18:00 -2°C° 0 mm 3 m/s 754 mmHg 70%
19:00 -3°C° 0 mm 2 m/s 755 mmHg 77%
20:00 -3°C° 0 mm 2 m/s 755 mmHg 78%
21:00 -4°C° 0 mm 2 m/s 755 mmHg 80%
22:00 -4°C° 0 mm 2 m/s 756 mmHg 81%
23:00 -4°C° 0 mm 2 m/s 756 mmHg 81%

9 Martie, Marţi

Timp Temperatura Precipitaţii Vânt Presiune Umiditate
00:00 -2°C° 0 mm 1 m/s 756 mmHg 82%
01:00 -2°C° 0 mm 1 m/s 756 mmHg 82%
02:00 -2°C° 0 mm 1 m/s 756 mmHg 81%
03:00 -2°C° 0 mm 1 m/s 756 mmHg 80%
04:00 -2°C° 0 mm 1 m/s 756 mmHg 79%
05:00 -2°C° 0 mm 1 m/s 756 mmHg 78%
06:00 -2°C° 0 mm 1 m/s 756 mmHg 77%
07:00 -2°C° 0 mm 1 m/s 756 mmHg 76%
08:00 -1°C° 0 mm 1 m/s 756 mmHg 70%
09:00 -2°C° 0 mm 2 m/s 756 mmHg 64%
10:00 -1°C° 0 mm 2 m/s 757 mmHg 58%
11:00 +1°C° 0 mm 2 m/s 756 mmHg 54%
12:00 +2°C° 0 mm 2 m/s 756 mmHg 50%
13:00 +3°C° 0 mm 2 m/s 756 mmHg 46%
14:00 +3°C° 0 mm 2 m/s 756 mmHg 46%
15:00 +3°C° 0 mm 2 m/s 755 mmHg 46%
16:00 +3°C° 0 mm 2 m/s 755 mmHg 46%
17:00 +2°C° 0 mm 2 m/s 755 mmHg 51%
18:00 -1°C° 0 mm 2 m/s 755 mmHg 55%
19:00 -2°C° 0 mm 2 m/s 755 mmHg 60%
20:00 -2°C° 0 mm 3 m/s 755 mmHg 61%
21:00 -2°C° 0 mm 3 m/s 755 mmHg 62%
22:00 -2°C° 0 mm 3 m/s 755 mmHg 63%
23:00 -2°C° 0 mm 3 m/s 755 mmHg 69%

10 Martie, Miercuri

Timp Temperatura Precipitaţii Vânt Presiune Umiditate
00:00 -2°C° 0 mm 3 m/s 754 mmHg 75%
01:00 -3°C° 0 mm 4 m/s 754 mmHg 81%
02:00 -2°C° 0 mm 4 m/s 754 mmHg 86%
03:00 -2°C° 0 mm 4 m/s 753 mmHg 91%
04:00 -1°C° 0 mm 4 m/s 753 mmHg 96%
05:00 -1°C° 0 mm 4 m/s 752 mmHg 95%
06:00 -1°C° 0 mm 5 m/s 752 mmHg 95%
07:00 -1°C° 0 mm 5 m/s 752 mmHg 94%
08:00 0°C° 0 mm 5 m/s 752 mmHg 91%
09:00 0°C° 0 mm 5 m/s 752 mmHg 88%
10:00 +1°C° 0 mm 5 m/s 752 mmHg 84%
11:00 +2°C° 0 mm 5 m/s 751 mmHg 79%
12:00 +3°C° 0 mm 5 m/s 750 mmHg 73%
13:00 +4°C° 0 mm 6 m/s 750 mmHg 67%
14:00 +4°C° 0 mm 6 m/s 749 mmHg 67%
15:00 +5°C° 0 mm 5 m/s 748 mmHg 67%
16:00 +5°C° 0 mm 5 m/s 747 mmHg 67%
17:00 +3°C° 0 mm 5 m/s 747 mmHg 68%
18:00 +3°C° 0 mm 5 m/s 746 mmHg 70%
19:00 +2°C° 0 mm 6 m/s 746 mmHg 71%
20:00 +2°C° 0 mm 6 m/s 745 mmHg 74%
21:00 +3°C° 0 mm 7 m/s 744 mmHg 78%
22:00 +3°C° 0 mm 7 m/s 744 mmHg 82%
23:00 +3°C° 0.1 mm 7 m/s 743 mmHg 84%
Arată mai mult

Formular de consimțământ

Meteoprog și furnizorii noștri de servicii pot stoca și accesa date personale, precum cookies, identificatori de dispozitiv sau alte tehnologii similare pe dispozitivul dumneavoastră și procesa astfel de date pentru a personaliza conținutul și reclamele, dar și pentru a oferi caracteristici de social media și pentru a analiza traficul.

  • Stocarea și/sau accesarea informațiilor pe dispozitivul dumneavoastră

    Cookies, identificatori de dispozitiv sau alte informații pot fi stocate sau accesate pe dispozitiv în scopurile indicate mai sus.

  • Reclame și conținut personalizat, evaluarea reclamelor și a conținutului, informații despre audiențe și dezvoltarea produselor

    Reclamele și conținutul pot fi personalizate pe baza unui profil. Pot fi adăugate date suplimentare pentru a personaliza mai bine reclamele și conținutul. Performanța reclamelor și conținutului poate fi măsurată. Pot fi obținute informații despre utilizatorii care au văzut reclamele și conținutul. Aceste date pot fi utilizate pentru a dezvolta sau îmbunătăți experiența utilizatorilor, sistemele și software-ul.

Dând clic pe ‘Sunt de acord’, permiteți utilizarea cookie-urilor menționate, a identificatorilor de dispozitiv, balizelor web sau altor tehnologii similare. Setările pot fi modificate din browser-ul dispozitivului dumneavoastră.

În anumite scopuri, interesele legitime pot prima asupra consimțământului. Puteți citi mai multe informații în acest sens în Politica privind Confidențialitatea Datelor și Cookie.